Location: Hookston
(37.9413°N, 122.0527°W)
Time: 14:45:13
(UTC+00:00)

Cosmos 1538 Rocket - Pass Details

Date: 29 May 2024
Orbit: 751 x 789 km, 74.0° (Epoch: 18 June)

Event Time Altitude Azimuth Distance (km) Brightness Sun altitude
Rises 12:12:40 0° 342° (NNW) 3,208 7.5 -6.8°
Reaches altitude 10° 12:15:02 10° 343° (NNW) 2,281 6.7 -6.5°
Maximum altitude 12:20:12 83° 72° (ENE) 765 4.1 -5.6°
Drops below altitude 10° 12:25:23 10° 161° (SSE) 2,283 6.3 -4.8°
Sets 12:27:45 0° 162° (SSE) 3,210 7.1 -4.4°
